CZ-6A DEB

Satellite information

Favourite Embed

Satellite Type and Status

DEBRISIN ORBIT

Key statistics

Satellite CZ-6A DEB at a glance.

Uptime

446

Days in orbit

Revolutions

≈ 14.6

Per day

Orbit

LEO

Low Earth Orbit

Inclination

89.0

Latest

Satellite identification and parameters

Extended collection of information and parameters for CZ-6A DEB.

Object identification

Identified? True

Debris? True

Object name: CZ-6A DEB

International designator: 2024-140LW

Object number (NORAD): 60971

Object ID (CCSDS): 60971

Country: PEOPLES REPUBLIC OF CHINA (PRC)

Current information (Y/N): Y

RCS size: SMALL

Orbital parameters

Period: 98.748 minutes

Inclination: 89.049 deg

SMA: 7076.926 km

Apoapsis: 766.286 km

Periapsis: 631.296 km

RAAN: 301.0388 deg

Eccentricy: 0.0095373

Argument of periapsis: 340.375 deg

Mean anomaly: 19.3799 deg

Mean motion: 14.58262685 rev/day

Mean motion (dot): 0.00008122 rev/day2

B* drag term: 0.0016474 1/REarth

Two-line elements (TLE)

Creation date: Oct. 25, 2025, 2:46 p.m.

Reference frame: TEME

Reference center: EARTH

Epoch: Oct. 25, 2025, 7:16 a.m. UTC

TLE line 0: 0 CZ-6A DEB

TLE line 1: 1 60971U 24140LW 25298.30279490 .00008122 00000-0 16474-2 0 9991

TLE line 2: 2 60971 89.0490 301.0388 0095373 340.3750 19.3799 14.58262685 62831

Live tracking on map

Real-time ground track for satellite CZ-6A DEB.

In-orbit conjunctions

A list of the most updated potential collisions computed for object CZ-6A DEB.

Target Orbit TCA Probability of collision Miss distance Type
CZ-4B DEB SSO 2025-06-24 09:59:32 0.0001398839 295.0 (m) DEBRIS
SL-24 DEB SSO 2024-10-31 17:18:11 0.0001816751 246.0 (m) DEBRIS
COSMOS 1275 DEB LEO 2024-10-09 19:29:46 0.0008095976 71.0 (m) DEBRIS
ADEOS 2 SSO 2024-09-20 00:51:31 0.0005435492 435.0 (m) PAYLOAD

Associated space launch

18 Low Earth Orbit communication satellites with Ku, Q and V band payloads for the G60 constellation operated by Shanghai Spacecom Satellite Technology (SSST) with funding backed by the Shanghai local government. Initial constellation will consist of 1296 satellites by 2027 with long term plans to expand it to 12000 satellites.

CZ-6A DEB was lifted into orbit during the mission ‘Long March 6A | G60 Polar Group 01’, on board a Long March 6A space rocket.

The launch took place on Aug. 6, 2024, 6:42 a.m. from Launch Complex 9A.

For more information about the launch, click the button.

Launch to space Long March 6A | G60 Polar Group 01
Long March 6A | G60 Polar Group 01

Agency: N/A

Status: Launch Successful

Launch date: Aug. 6, 2024, 6:42 a.m. UTC

Rocket: Long March 6A

Launch pad: Launch Complex 9A

Location: Taiyuan Satellite Launch Center, People's Republic of China

...

Latest news about this satellite

News about space launch
Brightness of first Chinese broadband constellation satellites alarms astronomers

The first satellites of a Chinese broadband constellation are significantly brighter than those of Western systems, posing a new challenge for astronomers.

News about space launch
Chinese rocket stage breaks up into cloud of more than 700 pieces of space debris

HELSINKI — A Chinese Long March 6A rocket’s upper stage has fragmented into a cloud of over 700 pieces of space debris, adding to concerns about long-term orbital safety. China […]

News about space launch
China's Thousand Sails Megaconstellation Kicks Off with Dangerous Debris Field

China's Thousand Sails Megaconstellation Kicks Off with Dangerous Debris Field


Newsletter sign-up

Weekly statistics, charts and insights to help you stay on top of the space industry.